Weather Roundup
Issued by NWS Springfield, MO

Home | Current Version | Previous Version | Text Only | Print | Product List | Glossary On
Versions: 1 2 3 4 5 6 7 8 9 10 11 12 13 14 15 16 17 18 19 20 21 22 23 24 25 26 27 28 29 30 31 32 33 34 35 36 37 38 39 40 41 42 43 44 45 46 47 48 49 50
000
NZUS99 KSGF 292007
HRRSGF

HOURLY WEATHER
NATIONAL WEATHER SERVICE SPRINGFIELD MO
300 PM CDT SAT AUG 29 2015

......SGF CWA......

CITY           SKY/WX    TMP DP  RH WIND       PRES   REMARKS
SPRINGFIELD    CLOUDY    80  68  66 S10       30.00F
JOPLIN         CLOUDY    80  68  66 MISG      30.00S
WEST PLAINS    PTSUNNY   73  65  75 SE3       30.06F
ROLLA          MOSUNNY   83  65  54 SW12      30.00F
OSAGE BEACH    CLOUDY    82  64  54 W6        30.01S
BRANSON        MOSUNNY   82  68  61 SE9       30.02F

......SURROUNDING SGF CWA......

CITY           SKY/WX    TMP DP  RH WIND       PRES   REMARKS
CHANUTE        CLOUDY    79  65  62 N7        30.01S
PARSONS        CLOUDY    80  67  64 NW6       30.01S
COFFEYVILLE    PTSUNNY   82  67  60 N9        29.99S
EMPORIA        CLOUDY    71  63  75 VRB5      30.04F
GROVE OK       PTSUNNY   84  70  61 W6        30.00R
ROGERS AR      MOSUNNY   86  69  56 SW9       30.01S HX  90
SILOAM SPRINGS PTSUNNY   88  66  48 SW8       29.98S HX  90
NEAR YELLVILLE PTSUNNY   81  66  61 S6        30.01S

......KANSAS AND MISSOURI......

CITY           SKY/WX    TMP DP  RH WIND       PRES   REMARKS
KANSAS CTY INT CLOUDY    78  67  68 NW7       30.02F
DOWNTOWN KC    CLOUDY    77  69  76 NW3       30.00F
COLUMBIA       CLOUDY    81  67  62 SW6       29.99F
SEDALIA        CLOUDY    81  67  62 NW6       30.01F
ST JOSEPH      CLOUDY    74  66  76 N6        30.03F
ST LOUIS       CLOUDY    82  66  58 SW8       30.01F
SPIRIT OF STL  CLOUDY    81  69  67 S9        29.99F
KIRKSVILLE     CLOUDY    78  68  71 S5        30.01S
WICHITA        CLOUDY    73  62  68 NE8       30.05F
TOPEKA         CLOUDY    75  65  70 N5        30.03F
OLATHE         CLOUDY    76  66  71 N5        30.01F

......TENNESSEE......

CITY           SKY/WX    TMP DP  RH WIND       PRES   REMARKS
MEMPHIS        MOSUNNY   91  62  37 SW9       30.02F HX  91
NASHVILLE      LGT RAIN  78  68  71 S12       30.08F

......ARKANSAS.......

CITY           SKY/WX    TMP DP  RH WIND       PRES   REMARKS
FAYETTEVILLE   SUNNY     85  70  60 S13       30.00F
FT SMITH       SUNNY     88  66  48 E9        29.97F HX  90
LITTLE ROCK    CLOUDY    89  61  38 SE9       30.01F

......OKLAHOMA.......

CITY           SKY/WX    TMP DP  RH WIND       PRES   REMARKS
TULSA          MOSUNNY   86  72  62 N8        29.96F HX  92
PONCA CITY     PTSUNNY   82  64  54 N10       30.00S
MCALESTER      PTSUNNY   86  69  56 VRB6      29.98F HX  90
OKLAHOMA CITY  MOSUNNY   91  65  41 N8        29.99F HX  93

......IOWA............

CITY           SKY/WX    TMP DP  RH WIND       PRES   REMARKS
DES MOINES     CLOUDY    73  64  73 NW6       30.03S
QUAD CITIES    CLOUDY    76  66  71 CALM      29.99S

......ILLINOIS........

CITY           SKY/WX    TMP DP  RH WIND       PRES   REMARKS
QUINCY         CLOUDY    79  67  66 W7        29.99S
CHICAGO        CLOUDY    69  66  90 W5        30.00F



USA.gov is the U.S. government's official web portal to all federal, state and local government web resources and services.